User: anonymous   Login
Location: Newark
(43.4306°N, 0.3089°E)
Time: 01:07:16
(UTC+00:00)
Language:

A-11 Canister half - Orbit

View from above orbital plane
View from above orbital plane
View from above satellite
View from above satellite

Ground track
Ground track

The orbit data is extracted from the following two-line orbital elements,

1    53U 60009E   19235.66982150 -.00000095  00000-0 -10740-3 0  9991
2    53  47.2769 100.3728 0097828 279.0804  79.8926 12.17228853632179
Epoch (UTC): 23 August 2019 16:04:32
Eccentricity: 0.0097828
inclination: 47.2769°
perigee height: 1526 km
apogee height: 1683 km
right ascension of ascending node: 100.3728°
argument of perigee: 279.0804°
revolutions per day: 12.17228853
mean anomaly at epoch: 79.8926°
orbit number at epoch: 63217

The dashed part of the orbit path shows where the satellite is in the earth's shadow,  

DLR